STARLINK-34167, 64228

Orbit data source: Space-Track

STARLINK-34167, 64228 is a payload satellite owned by SpaceX/Seattle (US) in LEO that was launched on Sat, 31 May 2025 UTC via an FALCON 9 launch vehicle from the Air Force Western Test Range (AFWTR). Payload-class satellites include a variety of spacecraft equipped with specific instruments for various scientific and technological missions. These include communications satellites like Starlink; space stations such as the ISS; scientific satellites like the Hubble; Earth observation satellites from companies like Planet Labs, Umbra, and HawkEye 360; GPS; miniature CubeSats for education and research; and military/defense satellites.

Loading next visibility...
Identifier
64228, 2025-117AB
Orbit
LEO
Last TLE update
5 hours ago
Origin
Manufacturer
SpaceX/Seattle
Mission
Operational Commercial Communications
Bus & Motor
STARLINK V2MO, Unknown motor
Mass
575 kg wet, ~530 kg dry
Launch date (UTC)
2025-05-31 (2 months ago)
Launch vehicle
FALCON 9
Launch site
Air Force Western Test Range (AFWTR)
Object type
Payload
Rocket body
Debris
Shape & HBR
Box + 1 Pan, 14.5 m
Radar Cross Section
41.120 m², Large (>1 m²)

Expand to show TLE details & history

TLE from 5 hours ago
0 STARLINK-34167
1 64228U 25117AB  25211.53999896  .00061140  00000-0  15241-2 0  9994
2 64228  53.1595 352.8825 0001306  65.3431 294.7709 15.39662892  9465
Epoch: 2025-07-30T12:57Z
TLE epoch observation values (Epoch: 2025-07-30T12:57:35.91Z)
Latitude
-0.00007°
Longitude
-149.93494°
Altitude
447.635 km
Speed
7.645 km/s
True Right ascension
23h 31m 31s
True Declination
0° 00' 00"
Sunlit
Object was in full shadow at epoch
Visualization orbit readout
Latitude
28.60763°
Longitude
-126.90888°
Altitude
447.739 km
Speed
7.648 km/s
Apparent Right ascension
22h 33m 52s
Apparent Declination
-5° 49' 59"
Sunlit
Object is in daylight
Visualization observer readout
Local Sidereal Time
07:21:29
Azimuth
295.201° NW
Elevation
-35.088°
Doppler factor
1
Orbital elements
Apogee altitude
448.254 km
Perigee altitude
446.472 km
Semi-major axis
6,825.5 km
Eccentricity
0.00013
Inclination
53.1595°
RAAN
352.8825°
Arg. of periapsis
65.3431°
True anomaly
294.75731°
Mean anomaly
294.7709°
Eccentric anomaly
294.76411°
Mean motion
3.84894 °/min
Orbital period
93.53 mins
BSTAR
0.0015241
Loading maneuver chart data...
Loading SW <> Apogee altitude chart data...
Loading historical data...
Loading historical data...
Loading historical data...
Loading historical data...
Loading historical data...
Loading historical data...
Loading historical data...
|